EHI
0 0 0 1 0 1 1 1 0 0 0 1 2 3 3 3 3 3 3 2 1 0 0 0 0 0 0 0 0 0 0 0 0 0 0 0 0 0 0 0 0 0 0
0 0 0 1 0 0 0 0 0 0 0 1 2 3 3 3 3 3 3 2 1 0 0 0 0 0 0 0 0 0 0 0 0 0 0 0 0 0 0 0 0 0 0
0 0 0 0 0 0 0 0 0 0 0 1 2 3 3 3 3 3 3 2 1 1 0 0 0 0 0 0 0 0 0 0 0 0 0 0 0 0 0 0 0 0 0
0 0 0 0 0 0 0 0 0 0 0 1 2 3 3 3 3 3 3 2 2 1 0 0 0 0 0 0 0 0 0 0 0 0 0 0 0 0 0 0 0 0 0
0 0 0 0 0 0 0 0 0 0 0 0 1 3 3 3 3 3 3 3 2 1 0 0 0 0 0 0 0 0 0 0 0 0 0 0 0 0 0 0 0 0 0
0 0 0 0 0 0 0 0 0 0 0 0 1 2 3 3 3 3 3 3 2 0 0 0 0 0 0 0 0 0 0 0 0 0 0 0 0 0 0 0 0 0 0
0 0 0 0 0 0 0 0 0 0 0 0 1 2 2 2 1 1 3 3 2 1 0 0 0 0 0 0 0 0 0 0 0 0 0 0 0 0 0 0 0 0 0
0 0 0 0 0 0 0 0 0 0 0 0 0 1 1 1 0 1 2 3 2 1 0 0 0 0 0 0 0 0 0 0 0 0 0 0 0 0 0 0 0 0 0
0 0 0 0 0 0 0 0 0 0 0 0 0 0 0 0 0 1 1 1 1 0 0 0 0 0 0 0 0 0 0 0 0 0 0 0 0 0 0 0 0 0 0
0 0 0 0 0 0 0 0 0 0 0 0 0 0 0 0 0 0 0 0 0 0 0 0 0 0 0 0 0 0 0 0 0 0 0 0 0 0 0 0 0 0 0
0 0 0 0 0 0 0 0 0 0 0 0 0 0 0 0 0 0 0 0 0 0 0 0 0 0 0 0 0 0 0 0 0 0 0 0 0 0 0 0 0 0 0
0 0 0 0 0 0 0 0 0 0 0 0 0 0 0 0 0 0 0 0 0 0 0 0 0 0 0 0 0 0 0 0 0 0 0 0 0 0 0 0 0 0 0
0 0 0 0 0 0 0 0 0 0 0 0 0 0 0 0 0 0 0 0 0 0 0 0 0 0 0 0 0 0 0 0 0 0 0 0 0 0 0 0 0 0 0
0 0 0 0 0 0 0 0 0 0 0 0 0 0 0 0 0 0 0 0 0 0 0 0 0 0 0 0 0 0 0 0 0 0 0 0 0 0 0 0 0 0 0
0 0 0 0 0 0 0 0 0 0 0 0 0 0 0 0 0 0 0 0 0 0 0 0 0 0 0 0 0 0 0 0 0 0 0 0 0 0 0 0 0 0 0
0 0 0 0 0 0 0 0 0 0 0 0 0 0 0 0 0 0 0 0 0 0 0 0 0 0 0 0 0 0 0 0 0 0 0 0 0 0 0 0 0 0 0
0 0 0 0 0 0 0 0 0 0 0 0 0 0 0 0 0 0 0 0 0 0 0 0 0 0 0 0 0 0 0 0 0 0 0 0 0 0 0 0 0 0 0
0 0 0 0 0 0 0 0 0 0 0 0 0 0 0 0 0 0 0 0 0 0 0 0 0 0 0 0 0 0 0 0 0 0 0 0 0 0 0 0 0 0 0
0 0 0 0 0 0 0 0 0 0 0 0 0 0 0 0 0 0 0 0 0 0 0 0 0 0 0 0 0 0 0 0 0 0 0 0 0 0 0 0 0 0 0
0 0 0 0 0 0 0 0 0 0 0 0 0 0 0 0 0 0 0 0 0 0 0 0 0 0 0 0 0 0 0 0 0 0 0 0 0 0 0 0 0 0 0
0 0 0 0 0 0 0 0 0 0 0 0 0 0 0 0 0 0 0 0 0 0 0 0 0 0 0 0 0 0 0 0 0 0 0 0 0 0 0 0 0 0 0
0 0 0 0 0 0 0 0 0 0 0 0 0 0 0 0 0 0 0 0 0 0 0 0 0 0 0 0 0 0 0 0 0 0 0 0 0 0 0 0 0 0 0
0 0 0 0 0 0 0 0 0 0 0 0 0 0 0 0 0 0 0 0 0 0 0 0 0 0 0 0 0 0 0 0 0 0 0 0 0 0 0 0 0 0 0
0 0 0 0 0 0 0 0 0 0 0 0 0 0 0 0 0 0 0 0 0 0 0 0 0 0 0 0 0 0 0 0 0 0 0 0 0 0 0 0 0 0 0
0 0 0 0 0 0 0 0 0 0 0 0 0 0 0 0 0 0 0 0 0 0 0 0 0 0 0 0 0 0 0 0 0 0 0 0 0 0 0 0 0 0 0
0 0 0 0 0 0 0 0 0 0 0 0 0 0 0 0 0 0 0 0 0 0 0 0 0 0 0 0 0 0 0 0 0 0 0 0 0 0 0 0 0 0 0
Wind_Speed
6 7 6 6 6 6 6 5 5 4 4 3 2 2 2 2 2 2 3 2 2 2 2 1 1 1 1 1 2 1 2 2 2 2 4 4 4 4 4 3 3 4 5
6 7 6 6 5 6 5 5 4 4 4 3 3 2 2 2 2 2 2 3 3 3 2 3 2 2 1 2 2 1 2 2 1 1 3 3 3 3 4 4 4 5 4
7 7 7 6 5 5 5 4 4 4 3 3 2 1 1 0 1 2 2 3 3 3 3 3 3 2 2 2 2 2 2 2 2 1 1 2 3 4 3 4 4 4 4
5 6 6 6 5 4 4 4 4 3 3 3 3 4 3 3 3 3 2 3 3 3 3 3 3 3 2 2 3 2 2 2 3 3 3 3 3 3 4 3 3 5 5
5 5 5 5 4 4 3 3 3 3 3 3 3 3 3 2 2 2 3 3 3 4 4 3 3 3 3 3 3 3 3 3 3 3 3 4 4 4 4 7 5 4 4
4 5 5 4 3 3 3 3 3 3 3 3 3 4 3 3 3 3 3 2 2 2 3 3 3 3 3 3 3 4 4 4 4 4 3 3 3 4 4 6 7 6 4
4 4 5 4 4 3 3 3 3 3 3 3 3 3 4 4 4 3 3 2 2 2 3 3 3 3 3 3 3 3 4 4 5 5 4 4 5 4 4 5 6 7 5
4 4 4 3 3 3 3 3 3 2 2 2 2 3 3 2 2 3 2 3 3 3 3 3 3 3 3 4 4 3 4 4 5 6 5 4 5 4 5 5 5 7 6
4 4 3 3 3 3 2 2 2 1 1 1 1 1 1 2 2 2 2 2 2 2 2 3 3 3 3 4 4 4 4 4 5 5 6 5 5 4 4 4 4 6 8
4 4 3 2 2 2 2 2 2 1 1 0 1 1 1 1 1 1 2 2 2 2 2 3 3 3 4 4 4 4 4 4 5 4 6 6 5 4 4 4 4 5 7
4 3 2 2 2 3 2 2 1 1 1 0 0 0 1 1 1 1 2 2 2 2 2 3 3 3 4 4 4 4 4 5 5 5 6 7 6 4 4 4 4 5 5
4 3 3 3 3 3 2 2 1 1 1 1 1 1 1 0 1 1 2 2 2 2 2 2 3 3 3 3 4 5 5 5 6 6 6 6 5 6 5 4 5 5 5
4 4 3 3 3 2 2 2 2 1 1 1 1 1 1 1 1 1 1 1 1 1 2 2 2 2 3 3 4 4 5 5 5 5 6 6 6 6 5 5 5 5 5
4 4 4 3 3 3 2 2 2 2 1 1 1 1 1 1 1 1 1 1 1 2 2 2 2 2 3 4 4 4 4 5 5 5 5 6 6 6 6 6 6 5 5
4 4 4 4 4 4 3 3 2 2 2 1 1 1 1 1 1 2 1 1 1 2 2 2 2 3 3 4 4 4 4 4 5 5 5 6 7 8 7 6 5 5 5
3 3 3 4 4 4 4 3 3 2 2 2 2 2 1 1 1 1 1 1 2 2 2 2 3 3 4 6 8 6 4 4 5 5 5 5 7 8 10 10 9 8 6
3 3 3 3 4 4 3 3 3 3 2 2 2 2 2 2 2 2 2 2 2 3 3 3 3 3 4 7 9 9 6 4 4 4 5 5 6 8 6 7 8 7 9
3 3 3 3 3 3 3 3 3 3 2 2 2 2 2 2 2 2 2 2 2 2 3 3 3 3 4 7 8 9 5 3 4 5 5 5 6 6 6 5 4 4 5
3 2 2 2 3 3 3 3 3 3 3 3 3 3 2 2 2 2 3 3 2 3 3 3 3 3 4 7 8 8 3 3 4 4 5 5 5 7 8 5 4 4 4
3 3 3 3 3 4 4 3 3 4 3 3 3 3 2 2 2 2 3 3 2 2 3 3 3 3 3 5 7 7 3 3 4 4 4 6 6 7 7 4 3 4 4
3 3 3 3 3 3 3 3 3 3 3 3 3 3 3 2 2 2 2 2 2 2 3 3 3 3 3 5 6 7 3 3 4 4 3 3 7 8 6 5 3 4 4
3 3 2 2 3 3 3 3 3 3 4 4 4 4 3 2 2 2 2 2 2 2 3 3 3 3 3 4 5 6 6 6 4 3 3 3 6 7 7 5 4 5 4
2 2 2 2 2 3 3 3 4 4 4 4 4 4 4 3 2 2 2 2 2 2 2 2 3 3 3 3 6 6 7 7 4 3 4 6 7 7 5 5 6 4 1
2 2 2 2 2 2 2 2 3 4 4 4 4 4 4 4 3 2 2 2 2 2 2 3 3 3 4 3 3 3 4 5 4 3 4 6 6 4 4 5 3 2 1
2 2 2 2 2 2 2 3 3 3 4 3 4 4 3 3 3 3 2 3 2 2 3 3 3 3 4 4 6 5 4 3 3 4 3 2 3 2 2 2 2 2 2
2 2 3 3 3 3 3 3 3 3 3 3 3 3 3 3 2 2 3 5 4 6 6 6 5 4 6 8 8 7 7 6 6 4 2 2 2 2 2 2 2 2 2
Wind_Direction
179 164 157 154 151 151 154 156 157 165 158 156 161 169 187 196 193 187 186 203 201 195 193 208 232 220 217 238 252 270 286 295 304 311 302 286 267 259 254 256 261 260 259
177 163 154 152 156 155 154 158 165 172 169 167 171 178 186 193 190 188 193 206 208 203 207 196 214 224 220 241 251 261 278 290 290 293 308 300 295 276 271 269 262 261 262
177 162 156 154 152 153 159 168 172 177 173 165 157 159 135 178 192 206 209 213 214 206 202 208 214 220 214 228 234 228 240 269 273 249 236 265 268 297 263 262 266 268 270
160 154 152 153 154 154 153 161 172 176 176 167 168 173 188 209 217 204 207 216 218 209 204 211 219 224 221 232 242 243 237 242 260 265 251 250 269 286 296 276 264 271 273
145 145 145 146 144 141 150 161 165 171 172 177 181 186 203 218 221 210 208 223 224 209 205 210 216 226 227 231 241 246 241 237 243 249 261 269 274 264 270 286 284 272 261
126 128 128 127 127 128 140 149 161 180 181 187 191 194 207 216 217 230 220 221 224 219 211 214 214 220 226 228 240 241 240 242 245 248 246 249 257 260 260 273 282 282 276
120 126 125 133 136 142 147 160 171 184 187 191 195 204 211 215 220 224 223 224 223 228 222 226 223 225 228 237 243 244 244 244 244 245 247 249 252 255 259 268 279 283 283
109 107 118 129 138 146 156 169 177 185 187 195 207 217 214 211 224 226 228 232 227 222 217 226 230 237 235 246 245 246 248 251 249 251 248 252 254 253 253 256 272 284 284
106 101 96 111 130 139 145 146 156 170 179 193 214 231 228 221 227 233 235 248 241 233 223 228 232 234 236 239 243 243 244 247 248 248 248 251 254 252 254 252 250 260 279
100 97 90 95 116 131 131 131 136 147 157 169 218 258 264 250 229 230 243 258 250 240 239 246 239 238 240 244 247 249 252 254 255 252 252 253 255 256 252 249 254 251 259
101 92 90 90 102 100 101 96 92 85 73 44 53 34 287 257 250 242 247 265 256 241 240 248 250 247 250 253 255 260 261 261 264 261 259 261 260 259 258 254 256 260 257
86 88 87 76 75 81 77 71 69 67 57 58 68 59 9 352 287 270 271 276 268 265 259 259 256 259 265 261 259 266 268 266 269 270 268 267 268 264 262 258 256 259 256
71 70 65 67 61 61 59 48 48 42 32 49 60 41 353 336 286 276 306 297 296 297 290 274 262 266 272 272 268 264 267 269 272 274 272 271 267 266 263 262 259 259 263
64 55 42 41 44 47 51 46 33 24 23 30 28 12 325 308 298 299 292 285 299 289 276 270 264 266 274 277 274 272 272 273 273 274 274 272 266 265 263 263 261 259 261
60 49 37 25 26 32 34 34 25 18 14 14 359 339 332 335 330 306 293 297 296 288 283 280 277 275 275 276 281 279 278 275 275 276 274 274 274 272 271 269 266 261 261
57 45 32 21 21 21 17 16 9 2 1 354 337 341 345 340 324 317 326 325 312 306 299 288 283 283 284 293 297 297 285 277 276 279 278 279 278 275 277 275 276 271 264
62 44 24 18 16 12 11 3 348 347 355 351 347 347 352 351 340 334 343 329 316 312 307 302 297 289 286 296 299 303 294 282 285 284 283 285 286 288 278 282 282 280 273
52 39 25 12 9 9 8 3 357 2 12 4 354 352 0 348 339 340 327 313 307 303 305 307 303 294 297 309 309 308 303 294 288 285 284 283 284 283 283 284 286 285 280
53 37 20 11 13 14 6 6 6 14 16 4 351 343 339 325 321 318 309 308 312 314 314 312 316 309 309 318 319 316 305 298 295 292 294 290 286 291 296 290 284 290 294
37 32 20 17 17 10 9 9 4 12 3 346 335 329 325 316 306 298 298 301 305 307 311 314 314 309 310 321 325 321 308 303 302 303 302 304 303 305 308 297 286 285 291
27 26 25 23 8 3 10 4 4 3 347 340 332 328 324 315 310 307 304 305 311 315 313 310 314 319 322 327 329 328 319 306 302 302 307 314 324 323 322 314 294 281 289
25 21 22 17 8 10 13 5 0 348 346 342 332 327 325 319 322 318 315 316 315 315 314 322 326 327 329 332 335 333 326 319 307 303 306 315 327 327 329 327 321 317 313
21 15 15 13 8 10 16 360 341 341 346 340 332 332 335 333 325 316 315 321 321 316 317 323 320 321 327 331 332 327 327 325 315 309 318 321 327 328 333 342 335 334 339
11 7 10 3 351 1 9 348 334 338 340 334 331 334 335 335 337 334 332 329 329 323 315 311 310 311 315 317 318 315 319 325 321 319 325 328 333 337 332 335 342 354 354
355 359 353 345 339 348 350 343 339 339 334 328 325 328 330 330 333 339 344 330 325 305 306 303 301 304 304 310 317 313 311 308 302 309 314 320 330 343 344 345 349 350 348
349 343 342 339 335 338 333 333 331 328 326 322 324 323 322 322 324 332 341 349 333 332 326 317 306 304 299 307 311 313 312 310 305 311 314 316 329 338 337 339 347 350 347